Orbital Elements at Epoch 2459200.5 (2020-Dec-17.0) TDB
Reference: JPL 29 (heliocentric ecliptic J2000)
Element | Value | Uncertainty (1-sigma) | Units |
e | .1303683601828507 | 3.4161e-08 | |
a | 5.209845001863693 | 9.9735e-08 | au |
q | 4.530646052163902 | 2.2024e-07 | au |
i | 25.62624407635685 | 1.1424e-06 | deg |
node | 66.9674646132825 | 3.2131e-06 | deg |
peri | 4.526218201923355 | 1.5608e-05 | deg |
M | 293.3883835495534 | 2.1635e-05 | deg |
tp | 2460004.179893033616 (2023-Feb-28.67989303) | 0.00027753 | TDB |
period | 4343.458046950939 11.89 | 0.00012472 3.415e-07 | d yr |
n | .08288326860960844 | 2.38e-09 | deg/d |
Q | 5.889043951563483 | 1.1274e-07 | au |
|
| | Orbit Determination Parameters
Additional Information
|